Precipitable_Water
1.62 1.69 1.71 1.66 1.71 1.76 1.78 1.76 1.78 1.76 1.79 1.74 1.72 1.67 1.66 1.64 1.62 1.58 1.57 1.61 1.58 1.54 1.53 1.52 1.61 1.54 1.54 1.52 1.56 1.52 1.53 1.51 1.49 1.48 1.54 1.62 1.77 1.69 1.67 1.70 1.70 1.69 1.68 1.66 1.65 1.63 1.63 1.64 1.64 1.63 1.61 1.59 1.59 1.55 1.53 1.51 1.52 1.51 1.52 1.51 1.52 1.51 1.51 1.53 1.51 1.53 1.54 1.55 1.55 1.56 1.58 1.60 1.62 1.63 1.67 1.69 1.68 1.68 1.68 1.68 1.65 1.64 1.65 1.65 1.64
1.67 1.71 1.72 1.67 1.68 1.72 1.75 1.78 1.79 1.80 1.81 1.74 1.76 1.76 1.68 1.65 1.62 1.61 1.58 1.59 1.55 1.49 1.56 1.50 1.51 1.47 1.47 1.50 1.55 1.62 1.51 1.55 1.54 1.53 1.47 1.52 1.68 1.70 1.66 1.66 1.69 1.71 1.70 1.71 1.69 1.67 1.66 1.65 1.65 1.65 1.63 1.62 1.59 1.59 1.57 1.55 1.53 1.51 1.50 1.50 1.49 1.51 1.51 1.50 1.50 1.52 1.53 1.55 1.56 1.59 1.62 1.66 1.67 1.68 1.70 1.70 1.70 1.72 1.72 1.71 1.68 1.65 1.65 1.66 1.61
1.74 1.74 1.77 1.75 1.73 1.72 1.76 1.76 1.78 1.79 1.80 1.76 1.79 1.79 1.77 1.74 1.68 1.63 1.58 1.59 1.56 1.54 1.57 1.50 1.46 1.45 1.39 1.42 1.47 1.55 1.54 1.58 1.61 1.56 1.51 1.46 1.58 1.73 1.67 1.67 1.67 1.69 1.70 1.75 1.76 1.74 1.73 1.70 1.73 1.77 1.73 1.68 1.64 1.63 1.60 1.57 1.53 1.53 1.54 1.53 1.56 1.58 1.56 1.56 1.57 1.59 1.59 1.59 1.60 1.62 1.67 1.67 1.66 1.69 1.72 1.71 1.71 1.71 1.69 1.68 1.67 1.62 1.63 1.60 1.58
1.80 1.79 1.79 1.76 1.76 1.76 1.75 1.77 1.76 1.78 1.81 1.78 1.77 1.79 1.77 1.76 1.74 1.65 1.59 1.57 1.55 1.54 1.54 1.49 1.42 1.38 1.41 1.36 1.42 1.52 1.53 1.58 1.64 1.57 1.58 1.50 1.49 1.61 1.75 1.69 1.66 1.70 1.73 1.76 1.76 1.75 1.71 1.69 1.72 1.81 1.81 1.80 1.74 1.71 1.69 1.67 1.66 1.65 1.63 1.59 1.56 1.55 1.59 1.64 1.65 1.71 1.68 1.66 1.69 1.70 1.68 1.68 1.65 1.65 1.65 1.67 1.66 1.64 1.62 1.61 1.61 1.59 1.57 1.56 1.55
1.77 1.81 1.76 1.77 1.78 1.79 1.77 1.73 1.75 1.77 1.76 1.76 1.76 1.76 1.78 1.75 1.69 1.70 1.67 1.60 1.54 1.54 1.55 1.51 1.40 1.36 1.44 1.41 1.42 1.44 1.54 1.58 1.60 1.54 1.57 1.55 1.50 1.49 1.63 1.70 1.75 1.57 1.61 1.73 1.76 1.73 1.72 1.72 1.73 1.75 1.81 1.81 1.78 1.73 1.73 1.73 1.72 1.74 1.73 1.65 1.64 1.68 1.66 1.63 1.65 1.69 1.69 1.67 1.69 1.67 1.70 1.66 1.63 1.60 1.57 1.57 1.58 1.57 1.55 1.56 1.56 1.54 1.51 1.49 1.48
1.79 1.77 1.83 1.75 1.75 1.75 1.78 1.75 1.77 1.78 1.77 1.76 1.76 1.72 1.73 1.74 1.74 1.78 1.56 1.62 1.51 1.55 1.53 1.47 1.44 1.45 1.44 1.39 1.43 1.44 1.53 1.56 1.61 1.57 1.54 1.58 1.53 1.46 1.48 1.61 1.64 1.83 1.74 1.69 1.65 1.68 1.70 1.72 1.79 1.79 1.72 1.75 1.71 1.73 1.77 1.77 1.77 1.75 1.70 1.69 1.69 1.64 1.60 1.59 1.62 1.64 1.64 1.64 1.63 1.60 1.59 1.58 1.55 1.53 1.50 1.49 1.51 1.51 1.50 1.47 1.46 1.43 1.40 1.37 1.34
1.80 1.80 1.78 1.78 1.76 1.76 1.75 1.79 1.79 1.81 1.78 1.74 1.76 1.69 1.69 1.66 1.64 1.80 1.64 1.62 1.55 1.53 1.56 1.45 1.38 1.32 1.37 1.43 1.41 1.43 1.52 1.53 1.52 1.53 1.54 1.54 1.52 1.49 1.48 1.52 1.60 1.69 1.82 1.78 1.70 1.62 1.67 1.70 1.69 1.76 1.74 1.80 1.76 1.79 1.76 1.74 1.72 1.71 1.66 1.63 1.63 1.64 1.63 1.63 1.67 1.63 1.61 1.62 1.59 1.55 1.52 1.50 1.49 1.46 1.45 1.43 1.43 1.42 1.40 1.37 1.35 1.31 1.29 1.28 1.26
1.82 1.78 1.78 1.81 1.81 1.75 1.77 1.81 1.75 1.80 1.78 1.74 1.72 1.68 1.67 1.68 1.68 1.74 1.57 1.56 1.55 1.48 1.54 1.51 1.40 1.35 1.30 1.35 1.38 1.40 1.48 1.54 1.54 1.57 1.56 1.56 1.55 1.50 1.49 1.48 1.48 1.60 1.59 1.74 1.84 1.76 1.62 1.63 1.64 1.63 1.68 1.73 1.75 1.74 1.71 1.70 1.66 1.61 1.59 1.60 1.60 1.65 1.66 1.66 1.65 1.62 1.61 1.60 1.56 1.51 1.48 1.45 1.42 1.40 1.38 1.36 1.33 1.31 1.29 1.26 1.21 1.21 1.22 1.22 1.17
1.82 1.81 1.78 1.78 1.77 1.72 1.76 1.76 1.78 1.78 1.73 1.76 1.75 1.75 1.77 1.73 1.68 1.72 1.71 1.64 1.59 1.53 1.57 1.55 1.43 1.37 1.33 1.28 1.28 1.33 1.41 1.53 1.58 1.55 1.49 1.45 1.43 1.43 1.40 1.34 1.36 1.30 1.48 1.68 1.65 1.80 1.62 1.53 1.50 1.52 1.57 1.64 1.68 1.63 1.60 1.61 1.62 1.62 1.62 1.63 1.65 1.68 1.67 1.63 1.61 1.61 1.59 1.56 1.52 1.46 1.42 1.38 1.34 1.32 1.28 1.24 1.23 1.22 1.19 1.14 1.12 1.13 1.12 1.06 0.97
1.82 1.83 1.80 1.83 1.83 1.79 1.80 1.74 1.79 1.76 1.77 1.78 1.85 1.85 1.80 1.77 1.69 1.75 1.75 1.69 1.64 1.61 1.57 1.56 1.46 1.40 1.36 1.32 1.26 1.32 1.36 1.50 1.48 1.47 1.44 1.37 1.33 1.32 1.32 1.32 1.35 1.34 1.41 1.50 1.63 1.65 1.79 1.60 1.51 1.51 1.52 1.55 1.55 1.56 1.56 1.56 1.56 1.57 1.58 1.59 1.60 1.62 1.60 1.58 1.58 1.56 1.54 1.50 1.45 1.41 1.35 1.30 1.25 1.22 1.20 1.18 1.15 1.13 1.09 1.04 1.04 1.05 1.01 0.93 0.82
1.82 1.83 1.79 1.81 1.79 1.78 1.73 1.75 1.78 1.77 1.77 1.80 1.82 1.83 1.83 1.77 1.83 1.81 1.81 1.76 1.69 1.69 1.68 1.63 1.52 1.45 1.39 1.37 1.35 1.27 1.37 1.47 1.51 1.46 1.46 1.45 1.42 1.34 1.34 1.33 1.25 1.20 1.24 1.37 1.44 1.55 1.55 1.69 1.68 1.71 1.69 1.48 1.47 1.49 1.52 1.54 1.55 1.56 1.55 1.54 1.52 1.51 1.51 1.51 1.50 1.48 1.46 1.43 1.39 1.34 1.27 1.22 1.18 1.14 1.12 1.10 1.09 1.05 0.99 0.97 0.98 1.00 0.94 0.82 0.82
1.78 1.81 1.79 1.78 1.79 1.76 1.72 1.73 1.77 1.79 1.77 1.76 1.74 1.80 1.78 1.81 1.80 1.83 1.75 1.74 1.71 1.68 1.69 1.66 1.54 1.49 1.40 1.40 1.37 1.38 1.42 1.48 1.53 1.48 1.47 1.48 1.47 1.48 1.44 1.34 1.29 1.25 1.24 1.28 1.35 1.42 1.43 1.46 1.44 1.50 1.55 1.54 1.43 1.40 1.44 1.51 1.53 1.52 1.49 1.47 1.45 1.41 1.39 1.40 1.41 1.41 1.40 1.37 1.33 1.26 1.18 1.13 1.11 1.07 1.05 1.01 0.98 0.95 0.92 0.94 0.96 0.96 0.85 0.82 0.85
1.69 1.72 1.72 1.74 1.74 1.77 1.75 1.76 1.81 1.79 1.75 1.72 1.73 1.82 1.78 1.79 1.77 1.81 1.78 1.69 1.66 1.68 1.66 1.66 1.49 1.38 1.42 1.38 1.39 1.47 1.43 1.47 1.54 1.47 1.46 1.47 1.46 1.43 1.34 1.37 1.36 1.31 1.28 1.26 1.27 1.31 1.31 1.28 1.32 1.37 1.42 1.48 1.57 1.48 1.42 1.43 1.43 1.42 1.43 1.41 1.34 1.30 1.30 1.32 1.36 1.37 1.33 1.29 1.23 1.16 1.10 1.04 1.01 0.97 0.97 0.95 0.93 0.89 0.89 0.92 0.94 0.88 0.84 0.87 0.91
1.63 1.64 1.65 1.70 1.69 1.70 1.71 1.79 1.76 1.78 1.76 1.75 1.78 1.72 1.74 1.74 1.74 1.73 1.76 1.64 1.59 1.67 1.62 1.58 1.43 1.34 1.25 1.23 1.29 1.35 1.42 1.41 1.44 1.45 1.44 1.42 1.39 1.34 1.31 1.31 1.35 1.38 1.37 1.35 1.33 1.30 1.31 1.33 1.34 1.36 1.33 1.35 1.44 1.57 1.58 1.57 1.57 1.44 1.37 1.33 1.27 1.25 1.27 1.28 1.30 1.29 1.26 1.21 1.15 1.11 1.06 1.03 0.99 0.94 0.91 0.90 0.89 0.86 0.87 0.88 0.88 0.88 0.90 0.92 0.94
1.59 1.59 1.58 1.60 1.65 1.69 1.69 1.75 1.73 1.75 1.69 1.69 1.70 1.70 1.72 1.69 1.66 1.64 1.61 1.81 1.71 1.77 1.60 1.65 1.41 1.34 1.28 1.14 1.10 1.11 1.16 1.25 1.35 1.40 1.42 1.39 1.37 1.32 1.32 1.31 1.32 1.37 1.42 1.47 1.45 1.45 1.41 1.41 1.39 1.37 1.39 1.36 1.41 1.41 1.39 1.29 1.37 1.35 1.30 1.24 1.18 1.16 1.19 1.23 1.24 1.23 1.21 1.18 1.14 1.05 1.00 0.96 0.94 0.91 0.89 0.87 0.88 0.86 0.87 0.89 0.89 0.90 0.93 0.95 0.99
1.55 1.57 1.55 1.56 1.60 1.63 1.68 1.71 1.70 1.71 1.69 1.66 1.66 1.66 1.69 1.68 1.66 1.70 1.58 1.56 1.61 1.50 1.69 1.68 1.60 1.32 1.10 1.16 1.10 1.01 0.99 1.03 1.14 1.27 1.35 1.33 1.32 1.34 1.31 1.29 1.36 1.41 1.52 1.48 1.46 1.47 1.46 1.48 1.44 1.42 1.40 1.43 1.41 1.36 1.32 1.42 1.37 1.29 1.23 1.20 1.14 1.14 1.16 1.17 1.20 1.19 1.19 1.17 1.10 1.03 0.98 0.87 0.89 0.90 0.90 0.90 0.90 0.93 0.92 0.94 0.92 0.92 0.97 0.99 1.05
1.55 1.57 1.57 1.53 1.56 1.60 1.63 1.66 1.67 1.70 1.67 1.63 1.62 1.67 1.69 1.74 1.70 1.64 1.66 1.56 1.60 1.61 1.59 1.61 1.51 1.48 1.29 1.04 0.90 0.86 0.99 1.03 1.03 1.10 1.23 1.22 1.28 1.31 1.25 1.30 1.37 1.38 1.43 1.42 1.44 1.45 1.48 1.50 1.47 1.48 1.44 1.41 1.37 1.35 1.36 1.33 1.36 1.34 1.30 1.23 1.17 1.11 1.10 1.12 1.11 1.15 1.15 1.12 1.09 1.05 0.97 0.93 0.91 0.94 0.96 0.93 0.95 0.96 0.97 0.97 0.96 0.99 1.01 1.07 1.10
1.53 1.56 1.56 1.55 1.53 1.57 1.60 1.61 1.62 1.63 1.63 1.61 1.64 1.65 1.64 1.67 1.74 1.71 1.70 1.70 1.57 1.44 1.48 1.62 1.55 1.42 1.41 1.35 1.27 1.15 1.02 1.03 0.98 0.91 1.15 1.23 1.21 1.25 1.28 1.38 1.39 1.37 1.42 1.45 1.43 1.46 1.45 1.43 1.53 1.48 1.48 1.44 1.39 1.38 1.36 1.30 1.21 1.20 1.30 1.31 1.21 1.12 1.06 1.04 1.03 1.08 1.14 1.15 1.13 1.09 1.02 0.97 0.97 0.97 0.97 1.00 0.98 1.00 1.02 1.01 1.03 1.06 1.09 1.11 1.13
1.50 1.53 1.54 1.55 1.56 1.58 1.59 1.61 1.61 1.60 1.60 1.58 1.54 1.58 1.68 1.72 1.74 1.72 1.68 1.74 1.60 1.49 1.44 1.52 1.55 1.48 1.44 1.34 1.31 1.31 1.22 1.11 1.03 1.05 0.99 1.13 1.20 1.22 1.29 1.32 1.32 1.33 1.38 1.40 1.43 1.42 1.44 1.43 1.45 1.45 1.50 1.43 1.41 1.39 1.39 1.37 1.24 1.08 1.15 1.18 1.12 1.10 1.07 1.03 1.06 1.10 1.17 1.20 1.18 1.15 1.09 1.04 1.01 1.02 1.03 1.03 1.06 1.04 1.06 1.08 1.08 1.11 1.14 1.17 1.17
1.46 1.50 1.51 1.53 1.54 1.57 1.60 1.61 1.60 1.60 1.58 1.53 1.53 1.59 1.70 1.74 1.73 1.74 1.75 1.73 1.70 1.57 1.53 1.58 1.46 1.46 1.47 1.42 1.34 1.34 1.32 1.27 1.26 1.15 1.09 1.03 1.08 1.19 1.21 1.23 1.26 1.30 1.32 1.34 1.40 1.39 1.39 1.44 1.38 1.35 1.36 1.41 1.39 1.37 1.35 1.36 1.37 1.38 1.34 1.19 1.12 1.10 1.11 1.12 1.10 1.15 1.19 1.22 1.23 1.22 1.17 1.11 1.06 1.05 1.08 1.09 1.09 1.12 1.11 1.12 1.13 1.14 1.17 1.19 1.20
1.40 1.45 1.49 1.49 1.53 1.54 1.58 1.58 1.58 1.58 1.55 1.50 1.49 1.52 1.58 1.67 1.67 1.66 1.66 1.69 1.70 1.69 1.59 1.55 1.59 1.56 1.46 1.41 1.40 1.35 1.33 1.27 1.26 1.24 1.14 1.06 1.08 1.13 1.14 1.22 1.21 1.24 1.28 1.29 1.31 1.34 1.36 1.38 1.36 1.34 1.35 1.36 1.37 1.35 1.34 1.38 1.42 1.42 1.38 1.30 1.20 1.17 1.17 1.16 1.15 1.15 1.21 1.23 1.26 1.28 1.26 1.20 1.16 1.12 1.12 1.14 1.16 1.16 1.17 1.17 1.17 1.18 1.19 1.20 1.23
1.38 1.40 1.44 1.47 1.50 1.52 1.53 1.54 1.56 1.59 1.57 1.54 1.49 1.49 1.52 1.57 1.65 1.69 1.71 1.67 1.74 1.70 1.64 1.63 1.62 1.65 1.52 1.46 1.36 1.32 1.27 1.23 1.19 1.17 1.17 1.18 1.07 1.04 1.08 1.05 1.06 1.22 1.27 1.24 1.27 1.27 1.29 1.33 1.37 1.33 1.30 1.32 1.37 1.40 1.39 1.37 1.40 1.43 1.45 1.36 1.27 1.22 1.22 1.21 1.18 1.17 1.17 1.22 1.24 1.27 1.30 1.29 1.24 1.22 1.20 1.19 1.19 1.18 1.19 1.20 1.21 1.21 1.23 1.24 1.25
1.37 1.40 1.40 1.44 1.44 1.50 1.50 1.52 1.56 1.59 1.56 1.55 1.50 1.48 1.48 1.47 1.55 1.62 1.68 1.67 1.68 1.69 1.68 1.65 1.64 1.60 1.55 1.47 1.42 1.37 1.27 1.25 1.21 1.22 1.17 1.13 1.06 1.06 1.15 1.20 1.14 1.08 1.17 1.20 1.16 1.19 1.22 1.26 1.26 1.27 1.32 1.33 1.37 1.40 1.43 1.43 1.39 1.34 1.36 1.32 1.29 1.29 1.28 1.26 1.23 1.20 1.20 1.19 1.22 1.25 1.26 1.30 1.30 1.28 1.28 1.27 1.24 1.23 1.22 1.22 1.23 1.24 1.26 1.28 1.31
1.32 1.37 1.42 1.42 1.42 1.43 1.47 1.49 1.51 1.52 1.53 1.57 1.56 1.54 1.52 1.53 1.54 1.57 1.62 1.70 1.71 1.69 1.70 1.67 1.66 1.63 1.59 1.63 1.51 1.52 1.42 1.31 1.27 1.26 1.16 1.17 1.15 1.09 1.06 1.09 1.09 1.14 1.20 1.21 1.22 1.18 1.17 1.20 1.25 1.26 1.30 1.34 1.38 1.41 1.42 1.42 1.42 1.37 1.33 1.31 1.30 1.31 1.33 1.32 1.29 1.25 1.22 1.21 1.21 1.23 1.26 1.27 1.31 1.34 1.33 1.31 1.29 1.28 1.27 1.28 1.29 1.30 1.31 1.33 1.35
1.22 1.26 1.36 1.42 1.42 1.40 1.40 1.41 1.43 1.47 1.50 1.55 1.56 1.55 1.54 1.51 1.52 1.52 1.55 1.59 1.68 1.71 1.68 1.68 1.68 1.62 1.66 1.65 1.57 1.52 1.38 1.38 1.34 1.25 1.22 1.20 1.18 1.10 1.07 1.13 1.03 1.05 1.14 1.16 1.10 1.18 1.21 1.22 1.24 1.29 1.30 1.34 1.39 1.41 1.43 1.43 1.43 1.44 1.38 1.39 1.35 1.35 1.34 1.34 1.34 1.33 1.29 1.26 1.26 1.26 1.29 1.33 1.34 1.37 1.39 1.39 1.38 1.36 1.35 1.34 1.35 1.36 1.38 1.39 1.40
1.16 1.21 1.30 1.39 1.40 1.44 1.43 1.40 1.43 1.47 1.48 1.46 1.49 1.52 1.53 1.50 1.48 1.46 1.48 1.53 1.59 1.64 1.67 1.69 1.70 1.67 1.65 1.60 1.55 1.50 1.42 1.39 1.35 1.30 1.21 1.23 1.16 1.12 1.08 1.09 1.06 1.04 1.14 1.16 1.22 1.11 1.18 1.26 1.26 1.29 1.31 1.36 1.40 1.46 1.47 1.45 1.44 1.45 1.41 1.39 1.42 1.38 1.36 1.35 1.36 1.37 1.37 1.36 1.33 1.31 1.31 1.33 1.34 1.35 1.37 1.41 1.43 1.44 1.43 1.41 1.41 1.40 1.40 1.41 1.42
1.18 1.26 1.30 1.31 1.38 1.43 1.45 1.42 1.43 1.45 1.47 1.46 1.46 1.48 1.49 1.49 1.49 1.48 1.48 1.53 1.55 1.58 1.63 1.66 1.65 1.66 1.65 1.59 1.56 1.57 1.50 1.44 1.43 1.33 1.36 1.33 1.26 1.20 1.12 1.00 1.01 1.05 1.05 1.16 1.23 1.18 1.14 1.23 1.31 1.32 1.36 1.37 1.39 1.42 1.45 1.46 1.45 1.45 1.43 1.40 1.37 1.38 1.35 1.33 1.32 1.33 1.35 1.36 1.35 1.33 1.30 1.29 1.30 1.31 1.32 1.35 1.39 1.42 1.43 1.44 1.45 1.46 1.46 1.44 1.42
1.27 1.27 1.31 1.30 1.31 1.35 1.39 1.40 1.41 1.45 1.47 1.46 1.44 1.45 1.47 1.46 1.48 1.48 1.43 1.49 1.49 1.52 1.58 1.63 1.62 1.63 1.64 1.66 1.59 1.56 1.59 1.53 1.51 1.47 1.41 1.36 1.32 1.28 1.18 1.10 0.97 0.90 1.02 1.01 1.08 1.17 1.31 1.18 1.26 1.28 1.33 1.36 1.39 1.42 1.39 1.36 1.37 1.37 1.35 1.35 1.34 1.34 1.32 1.30 1.30 1.30 1.31 1.32 1.33 1.33 1.32 1.30 1.28 1.28 1.30 1.31 1.33 1.36 1.40 1.43 1.45 1.47 1.48 1.48 1.47
1.23 1.31 1.30 1.33 1.31 1.30 1.30 1.33 1.38 1.39 1.43 1.45 1.44 1.42 1.44 1.45 1.45 1.45 1.41 1.47 1.48 1.48 1.52 1.56 1.62 1.66 1.65 1.62 1.58 1.58 1.56 1.57 1.52 1.48 1.47 1.42 1.35 1.30 1.26 1.14 1.11 0.95 0.89 0.91 1.01 1.07 1.25 1.23 1.14 1.41 1.30 1.29 1.34 1.35 1.32 1.33 1.36 1.32 1.35 1.35 1.33 1.33 1.34 1.32 1.30 1.30 1.30 1.29 1.29 1.29 1.29 1.30 1.31 1.30 1.29 1.29 1.31 1.33 1.37 1.39 1.42 1.44 1.46 1.48 1.49
1.20 1.28 1.32 1.32 1.30 1.27 1.26 1.27 1.31 1.37 1.38 1.40 1.42 1.41 1.41 1.41 1.44 1.46 1.46 1.46 1.46 1.50 1.50 1.51 1.57 1.60 1.60 1.60 1.60 1.55 1.58 1.55 1.51 1.53 1.51 1.43 1.38 1.32 1.27 1.24 1.19 1.02 0.97 0.86 0.89 1.06 1.07 1.20 1.19 1.30 1.28 1.26 1.27 1.26 1.30 1.31 1.31 1.27 1.30 1.33 1.35 1.37 1.36 1.35 1.32 1.30 1.29 1.28 1.27 1.27 1.28 1.29 1.30 1.32 1.33 1.33 1.32 1.32 1.33 1.35 1.37 1.40 1.43 1.45 1.47
1.24 1.23 1.26 1.27 1.28 1.27 1.24 1.23 1.27 1.28 1.33 1.34 1.37 1.38 1.38 1.35 1.39 1.42 1.46 1.45 1.40 1.42 1.47 1.45 1.49 1.54 1.53 1.50 1.54 1.52 1.57 1.55 1.54 1.54 1.48 1.43 1.40 1.36 1.30 1.26 1.19 1.13 1.04 0.99 0.83 1.00 1.11 1.08 1.16 1.27 1.27 1.28 1.26 1.24 1.26 1.30 1.30 1.26 1.27 1.31 1.34 1.35 1.35 1.37 1.36 1.35 1.33 1.31 1.30 1.29 1.29 1.30 1.31 1.32 1.33 1.33 1.34 1.35 1.34 1.34 1.35 1.37 1.40 1.41 1.43
1.24 1.26 1.23 1.22 1.24 1.23 1.24 1.20 1.21 1.26 1.27 1.28 1.30 1.32 1.33 1.30 1.31 1.33 1.39 1.44 1.38 1.36 1.40 1.45 1.46 1.48 1.48 1.45 1.47 1.47 1.52 1.53 1.49 1.48 1.47 1.45 1.43 1.37 1.33 1.28 1.23 1.19 1.14 1.03 0.91 0.86 1.06 1.04 1.08 1.16 1.24 1.26 1.29 1.21 1.20 1.21 1.27 1.26 1.26 1.28 1.32 1.32 1.34 1.35 1.36 1.34 1.34 1.34 1.34 1.34 1.35 1.35 1.35 1.35 1.35 1.36 1.36 1.37 1.37 1.36 1.36 1.36 1.37 1.38 1.40
1.25 1.25 1.24 1.21 1.21 1.21 1.21 1.23 1.20 1.21 1.24 1.25 1.28 1.29 1.27 1.25 1.25 1.25 1.32 1.40 1.39 1.35 1.37 1.35 1.40 1.43 1.43 1.40 1.42 1.47 1.52 1.47 1.46 1.45 1.45 1.46 1.45 1.38 1.35 1.32 1.26 1.28 1.20 1.09 0.97 0.93 1.07 1.19 1.15 1.13 1.21 1.22 1.16 1.23 1.21 1.25 1.29 1.38 1.38 1.34 1.34 1.34 1.36 1.37 1.39 1.40 1.38 1.36 1.35 1.34 1.34 1.35 1.37 1.38 1.39 1.38 1.38 1.37 1.36 1.35 1.34 1.34 1.34 1.35 1.37
1.25 1.24 1.24 1.23 1.21 1.20 1.19 1.20 1.21 1.21 1.22 1.23 1.22 1.23 1.20 1.19 1.19 1.24 1.23 1.24 1.29 1.32 1.33 1.34 1.34 1.35 1.38 1.34 1.35 1.41 1.48 1.43 1.42 1.40 1.41 1.43 1.45 1.40 1.36 1.31 1.28 1.28 1.32 1.17 1.11 1.04 0.99 1.18 1.19 1.29 1.27 1.34 1.21 1.32 1.25 1.24 1.27 1.31 1.32 1.42 1.46 1.44 1.40 1.40 1.40 1.41 1.42 1.40 1.37 1.35 1.34 1.33 1.32 1.31 1.30 1.31 1.32 1.32 1.31 1.30 1.30 1.30 1.30 1.31 1.33
1.26 1.23 1.22 1.21 1.20 1.19 1.17 1.19 1.20 1.18 1.19 1.20 1.19 1.16 1.16 1.16 1.14 1.16 1.19 1.22 1.22 1.26 1.29 1.28 1.32 1.38 1.36 1.33 1.31 1.36 1.41 1.40 1.42 1.38 1.38 1.38 1.39 1.36 1.34 1.36 1.32 1.30 1.34 1.31 1.18 1.07 1.05 1.09 1.21 1.17 1.21 1.28 1.25 1.27 1.33 1.33 1.32 1.33 1.29 1.28 1.29 1.33 1.39 1.42 1.40 1.37 1.34 1.33 1.30 1.28 1.26 1.25 1.25 1.24 1.24 1.26 1.28 1.30 1.31 1.30 1.28 1.26 1.24 1.25 1.27
1.23 1.23 1.21 1.20 1.20 1.17 1.15 1.15 1.16 1.16 1.16 1.14 1.14 1.13 1.12 1.13 1.13 1.12 1.14 1.17 1.20 1.23 1.27 1.29 1.33 1.37 1.35 1.34 1.32 1.34 1.38 1.37 1.38 1.37 1.37 1.36 1.34 1.33 1.30 1.31 1.30 1.29 1.31 1.33 1.31 1.17 1.13 1.05 1.14 1.15 1.20 1.18 1.23 1.32 1.35 1.36 1.32 1.30 1.28 1.28 1.32 1.31 1.32 1.36 1.39 1.39 1.39 1.35 1.29 1.25 1.22 1.20 1.18 1.18 1.21 1.23 1.26 1.28 1.29 1.29 1.30 1.30 1.28 1.24 1.23
1.22 1.23 1.20 1.20 1.18 1.16 1.12 1.11 1.11 1.11 1.11 1.10 1.07 1.06 1.10 1.13 1.12 1.11 1.13 1.16 1.16 1.18 1.22 1.26 1.29 1.31 1.34 1.33 1.34 1.35 1.37 1.32 1.33 1.33 1.33 1.32 1.34 1.32 1.30 1.33 1.31 1.33 1.34 1.30 1.28 1.27 1.15 1.06 1.09 1.20 1.25 1.23 1.25 1.27 1.32 1.24 1.25 1.26 1.29 1.26 1.29 1.30 1.30 1.34 1.37 1.38 1.34 1.31 1.28 1.26 1.25 1.27 1.29 1.29 1.28 1.27 1.28 1.29 1.29 1.29 1.29 1.29 1.28 1.27 1.26
1.18 1.20 1.18 1.16 1.14 1.12 1.12 1.12 1.11 1.10 1.11 1.09 1.06 1.02 1.03 1.09 1.11 1.10 1.11 1.12 1.15 1.17 1.20 1.22 1.26 1.30 1.28 1.27 1.28 1.29 1.31 1.28 1.27 1.30 1.32 1.30 1.33 1.30 1.27 1.27 1.29 1.30 1.28 1.28 1.27 1.23 1.19 1.15 1.14 1.13 1.22 1.19 1.22 1.27 1.32 1.31 1.22 1.15 1.15 1.21 1.27 1.30 1.32 1.32 1.32 1.31 1.33 1.34 1.32 1.31 1.30 1.30 1.31 1.33 1.32 1.33 1.36 1.37 1.36 1.34 1.33 1.31 1.28 1.27 1.27
1.14 1.13 1.15 1.13 1.13 1.11 1.11 1.10 1.09 1.10 1.10 1.09 1.07 1.04 1.01 1.03 1.07 1.08 1.05 1.07 1.10 1.14 1.16 1.17 1.19 1.25 1.28 1.27 1.24 1.24 1.23 1.24 1.23 1.23 1.27 1.29 1.28 1.26 1.27 1.27 1.29 1.26 1.24 1.26 1.28 1.25 1.21 1.17 1.18 1.19 1.15 1.21 1.21 1.16 1.30 1.36 1.30 1.19 1.07 1.08 1.10 1.24 1.31 1.28 1.24 1.32 1.38 1.42 1.45 1.44 1.46 1.51 1.50 1.46 1.48 1.51 1.55 1.55 1.52 1.50 1.48 1.44 1.39 1.35 1.31
1.13 1.11 1.10 1.09 1.11 1.11 1.09 1.08 1.09 1.11 1.10 1.08 1.07 1.06 1.03 1.00 1.01 1.02 1.03 1.02 1.05 1.08 1.11 1.13 1.14 1.16 1.20 1.23 1.24 1.26 1.24 1.23 1.22 1.23 1.25 1.24 1.29 1.24 1.29 1.31 1.30 1.27 1.23 1.21 1.21 1.20 1.18 1.18 1.16 1.13 1.17 1.13 1.14 1.22 1.30 1.30 1.22 1.20 1.27 1.20 1.11 1.18 1.26 1.36 1.42 1.50 1.66 1.68 1.59 1.59 1.67 1.69 1.64 1.63 1.63 1.63 1.64 1.66 1.65 1.65 1.64 1.61 1.58 1.52 1.46
1.15 1.13 1.11 1.11 1.11 1.08 1.08 1.07 1.07 1.08 1.07 1.06 1.07 1.05 1.00 0.98 0.97 0.97 1.00 1.01 0.99 1.00 1.03 1.08 1.13 1.13 1.11 1.13 1.17 1.22 1.25 1.24 1.22 1.22 1.25 1.29 1.26 1.21 1.27 1.30 1.28 1.26 1.22 1.22 1.19 1.17 1.15 1.14 1.11 1.15 1.13 1.13 1.14 1.20 1.24 1.26 1.23 1.26 1.44 1.49 1.44 1.52 1.55 1.57 1.68 1.79 1.74 1.64 1.60 1.60 1.62 1.66 1.61 1.60 1.64 1.65 1.71 1.74 1.73 1.72 1.70 1.70 1.68 1.66 1.62
1.16 1.15 1.13 1.13 1.12 1.10 1.07 1.06 1.06 1.06 1.04 1.06 1.03 1.00 0.99 0.97 0.95 0.94 0.98 0.99 1.00 1.01 1.01 1.01 1.03 1.06 1.09 1.10 1.10 1.12 1.14 1.14 1.12 1.11 1.10 1.12 1.14 1.13 1.16 1.23 1.24 1.24 1.19 1.15 1.14 1.14 1.12 1.08 1.07 1.10 1.10 1.11 1.19 1.29 1.36 1.44 1.56 1.65 1.69 1.72 1.64 1.67 1.70 1.63 1.63 1.71 1.71 1.63 1.55 1.53 1.64 1.75 1.68 1.59 1.61 1.57 1.62 1.64 1.63 1.65 1.65 1.68 1.68 1.69 1.69
1.15 1.16 1.14 1.11 1.09 1.11 1.10 1.07 1.04 1.04 1.04 1.03 0.99 0.96 0.94 0.94 0.97 0.97 0.93 0.95 1.00 1.02 1.01 0.98 0.95 0.97 1.02 1.06 1.08 1.09 1.06 1.02 1.00 0.99 1.01 1.02 1.04 1.06 1.08 1.11 1.15 1.17 1.14 1.12 1.11 1.14 1.13 1.11 1.16 1.17 1.16 1.19 1.29 1.41 1.49 1.57 1.77 1.88 1.84 1.82 1.74 1.68 1.55 1.45 1.31 1.41 1.69 1.69 1.64 1.55 1.51 1.64 1.59 1.41 1.41 1.46 1.50 1.53 1.56 1.54 1.57 1.60 1.63 1.67 1.66
1.17 1.18 1.13 1.11 1.12 1.13 1.13 1.10 1.08 1.06 1.05 1.04 0.99 0.94 0.91 0.90 0.90 0.93 0.97 0.96 0.99 1.01 1.00 0.97 0.96 0.97 0.97 0.98 1.02 1.07 1.07 1.04 1.04 1.03 0.98 0.97 0.99 1.02 1.06 1.09 1.13 1.17 1.21 1.17 1.12 1.12 1.15 1.17 1.21 1.28 1.31 1.34 1.41 1.51 1.58 1.69 1.91 2.02 1.98 1.80 1.71 1.65 1.55 1.41 1.29 1.34 1.63 1.77 1.59 1.46 1.33 1.48 1.55 1.41 1.30 1.34 1.46 1.50 1.54 1.59 1.60 1.60 1.59 1.59 1.61
1.21 1.15 1.13 1.14 1.13 1.13 1.12 1.10 1.08 1.09 1.08 1.08 1.01 0.96 0.92 0.90 0.88 0.88 0.92 0.97 0.99 1.00 1.00 0.99 0.98 0.98 0.98 0.98 0.98 1.01 1.03 1.02 1.01 1.02 1.02 1.04 1.04 1.07 1.12 1.15 1.17 1.17 1.17 1.21 1.29 1.30 1.32 1.29 1.30 1.35 1.43 1.46 1.48 1.62 1.79 1.93 2.08 1.96 1.96 1.81 1.67 1.63 1.56 1.42 1.45 1.50 1.57 1.68 1.54 1.43 1.31 1.37 1.50 1.41 1.31 1.35 1.48 1.48 1.45 1.45 1.46 1.49 1.50 1.52 1.56
1.19 1.16 1.16 1.14 1.15 1.14 1.12 1.11 1.09 1.09 1.10 1.11 1.04 0.98 0.95 0.93 0.91 0.90 0.91 0.94 0.98 1.01 1.02 1.03 1.03 1.02 1.01 1.00 0.98 0.96 0.99 1.02 1.03 1.02 1.03 1.05 1.11 1.16 1.17 1.19 1.19 1.19 1.22 1.31 1.38 1.43 1.48 1.47 1.48 1.50 1.67 1.76 1.72 1.83 2.01 2.13 2.07 1.95 1.91 1.82 1.69 1.63 1.56 1.49 1.57 1.61 1.61 1.68 1.48 1.44 1.30 1.34 1.52 1.42 1.22 1.20 1.31 1.28 1.29 1.28 1.24 1.22 1.19 1.20 1.23
1.18 1.15 1.14 1.13 1.15 1.16 1.15 1.14 1.11 1.08 1.09 1.12 1.07 1.02 0.98 0.97 0.96 0.96 0.97 0.99 1.01 1.01 1.02 1.05 1.06 1.06 1.08 1.09 1.04 1.00 1.02 1.03 1.04 1.05 1.08 1.12 1.16 1.20 1.23 1.24 1.29 1.38 1.51 1.57 1.58 1.61 1.64 1.66 1.67 1.72 1.83 1.94 1.96 2.01 2.09 2.21 2.16 2.16 2.08 1.82 1.78 1.73 1.66 1.65 1.63 1.69 1.66 1.74 1.68 1.53 1.18 1.15 1.27 1.12 1.00 1.07 1.17 1.19 1.25 1.25 1.19 1.15 1.13 1.12 1.12
1.26 1.25 1.23 1.21 1.17 1.15 1.16 1.15 1.11 1.07 1.10 1.12 1.08 1.06 1.04 1.03 1.04 1.04 1.03 1.02 1.01 1.00 1.02 1.05 1.08 1.11 1.13 1.11 1.07 1.04 1.03 1.04 1.04 1.05 1.08 1.14 1.17 1.19 1.21 1.31 1.43 1.55 1.62 1.74 1.81 1.85 1.83 1.81 1.81 1.85 1.92 2.01 2.07 2.08 2.12 2.16 2.14 2.20 2.15 1.91 1.84 1.74 1.60 1.49 1.41 1.56 1.56 1.67 1.57 1.28 1.04 0.96 1.11 1.03 0.93 1.03 1.09 1.09 1.17 1.18 1.17 1.17 1.14 1.12 1.12
1.22 1.21 1.19 1.18 1.19 1.16 1.15 1.14 1.11 1.10 1.11 1.13 1.10 1.08 1.08 1.10 1.11 1.10 1.08 1.06 1.04 1.01 1.00 1.05 1.10 1.12 1.13 1.13 1.11 1.08 1.07 1.07 1.09 1.11 1.14 1.17 1.21 1.27 1.33 1.39 1.47 1.55 1.62 1.77 1.86 1.88 1.88 1.87 1.91 1.97 2.01 2.05 2.10 2.12 2.10 2.16 2.15 2.17 2.04 1.75 1.70 1.69 1.54 1.40 1.37 1.31 1.22 1.23 1.17 1.17 1.04 0.89 0.96 1.00 0.96 0.98 1.05 1.09 1.11 1.18 1.25 1.23 1.18 1.17 1.17
1.17 1.18 1.20 1.19 1.20 1.19 1.16 1.15 1.16 1.10 1.09 1.16 1.14 1.12 1.13 1.15 1.16 1.14 1.14 1.11 1.06 1.03 1.03 1.07 1.11 1.12 1.13 1.12 1.13 1.14 1.13 1.14 1.17 1.20 1.25 1.31 1.34 1.38 1.41 1.41 1.44 1.49 1.60 1.73 1.79 1.86 1.94 1.98 2.00 2.00 2.00 2.03 2.09 2.15 2.18 2.18 2.15 2.25 1.94 1.76 1.75 1.72 1.61 1.48 1.16 1.03 1.01 1.08 1.07 1.13 0.97 0.89 1.01 1.05 1.02 1.04 1.04 1.05 1.12 1.15 1.21 1.23 1.25 1.26 1.26
1.20 1.22 1.21 1.18 1.19 1.21 1.21 1.20 1.20 1.15 1.14 1.20 1.20 1.17 1.17 1.19 1.21 1.22 1.21 1.17 1.09 1.06 1.04 1.05 1.12 1.14 1.15 1.15 1.13 1.14 1.18 1.24 1.29 1.32 1.35 1.40 1.41 1.44 1.45 1.44 1.44 1.48 1.62 1.73 1.74 1.76 1.86 1.93 1.98 1.99 1.99 2.07 2.15 2.17 2.22 2.27 2.25 2.25 2.07 1.91 1.89 1.73 1.47 1.22 1.06 0.97 0.88 0.94 1.13 1.23 0.98 0.94 0.99 1.00 1.01 0.93 0.85 0.93 1.05 1.10 1.15 1.20 1.23 1.26 1.27
Wind_Speed
10 10 10 10 10 10 10 10 10 9 9 9 8 8 8 7 7 7 8 8 8 9 9 9 9 9 9 9 9 9 9 9 8 8 8 8 8 8 7 7 7 7 7 7 8 8 8 8 8 8 8 9 9 9 9 8 8 8 8 8 8 7 7 7 7 6 6 6 6 7 7 7 7 7 7 8 8 8 8 9 9 9 10 10 11
10 10 10 10 10 10 9 9 9 9 8 8 8 7 7 7 7 7 7 8 8 8 9 9 9 9 9 9 9 9 9 9 9 8 8 8 7 7 7 7 6 6 7 7 7 7 7 7 7 7 8 8 8 8 8 8 8 8 8 7 7 7 7 6 6 6 6 6 7 7 7 7 7 7 7 8 8 8 9 9 9 9 10 11 11
10 10 10 9 9 9 9 8 8 8 8 7 7 7 7 6 6 6 7 7 8 8 8 9 8 9 9 9 9 8 9 9 9 8 8 8 7 7 7 7 6 6 6 6 6 6 6 6 6 7 7 7 7 7 7 8 7 7 7 7 6 6 6 6 6 6 6 6 6 7 7 7 7 7 8 8 8 8 9 9 9 10 10 11 11
10 9 9 9 9 8 8 8 8 8 7 7 7 7 7 6 6 6 7 7 7 8 8 8 8 8 9 9 9 8 8 8 8 8 8 8 8 7 7 7 7 6 6 6 6 5 5 5 6 6 6 6 6 6 6 6 6 6 6 6 5 5 5 5 5 5 6 6 7 7 7 7 7 7 8 8 8 8 8 9 9 10 10 11 11
9 9 9 8 8 8 8 8 7 7 7 7 7 6 6 6 6 6 6 7 7 7 7 8 8 8 8 9 9 8 8 8 8 8 8 8 7 7 7 6 6 6 6 5 5 5 5 5 5 5 5 5 5 5 5 4 4 4 4 4 4 4 5 5 5 6 6 7 7 7 7 7 7 7 7 8 8 8 8 9 9 10 11 11 11
9 8 8 8 8 8 7 7 7 7 7 7 7 6 6 6 6 7 7 7 7 7 7 7 7 7 8 8 8 8 8 8 8 8 8 7 7 7 6 6 6 6 6 5 5 5 5 5 5 4 4 4 4 4 3 3 3 3 3 4 4 4 4 5 5 6 6 7 7 8 8 8 7 7 7 8 8 8 9 9 10 10 10 11 11
8 8 8 8 8 8 7 7 7 7 7 7 7 7 7 7 7 7 7 7 7 6 6 6 6 7 7 7 7 7 7 7 7 7 7 7 7 7 6 6 6 6 6 5 5 5 4 4 4 4 3 3 3 3 3 3 3 3 3 4 4 4 5 5 6 6 7 7 7 8 8 8 7 7 7 7 8 8 9 9 9 10 10 10 10
8 8 8 7 7 7 7 7 7 7 7 7 7 7 7 7 7 7 6 6 6 6 6 5 5 6 6 6 6 6 6 7 7 7 7 7 6 6 6 6 6 5 5 5 5 5 4 4 3 3 3 3 3 3 3 3 3 3 4 4 4 4 5 5 6 6 7 7 7 8 8 8 7 7 7 7 8 8 8 9 9 9 10 10 11
8 8 8 7 7 7 7 7 7 7 8 8 8 8 7 7 7 7 6 6 5 5 5 5 5 5 5 5 5 6 6 6 6 6 6 6 6 6 6 6 6 5 5 5 5 5 4 4 4 3 3 3 2 2 2 3 3 3 4 4 4 4 5 5 6 6 7 7 7 7 8 7 7 7 7 7 7 8 8 9 9 10 10 11 11
8 8 8 7 7 7 7 7 7 7 8 8 8 8 7 7 7 7 6 6 5 5 5 5 5 5 5 5 5 5 6 6 6 6 6 6 6 6 6 6 6 5 5 4 4 4 4 4 4 3 3 3 2 2 2 3 3 3 4 4 4 4 5 5 5 6 6 7 7 7 7 7 6 6 6 7 7 8 9 9 10 10 11 11 12
8 8 8 8 7 7 8 8 8 8 8 8 8 7 7 6 6 6 6 6 5 5 5 5 5 5 5 5 5 6 6 6 6 6 6 6 6 6 6 6 6 5 5 4 4 4 4 4 3 3 3 3 2 2 2 3 3 3 3 4 4 4 5 5 5 6 6 7 7 7 7 6 6 6 6 6 7 8 9 9 10 10 11 11 12
9 8 8 8 8 8 8 8 8 7 7 7 7 6 6 6 6 6 6 6 5 5 5 5 5 5 5 5 5 6 6 6 6 6 6 6 6 5 5 6 6 6 6 5 5 4 4 4 3 3 3 3 3 3 3 3 3 3 4 4 4 4 5 5 5 6 6 6 6 6 6 6 5 6 6 6 7 8 8 9 9 10 10 11 12
9 8 8 8 8 8 8 8 7 7 6 6 6 6 6 5 5 5 6 5 5 5 5 5 5 5 5 5 5 5 5 5 5 5 5 5 5 5 5 5 6 6 6 6 5 5 5 4 4 3 3 3 3 3 3 3 3 4 4 4 5 5 5 5 6 6 6 6 6 6 6 6 5 6 6 7 7 8 8 9 9 10 10 11 12
9 9 8 8 8 8 8 7 7 6 6 5 5 5 5 5 5 5 5 5 5 5 5 5 5 4 4 4 4 4 4 3 4 4 4 4 4 4 5 5 5 5 5 5 5 5 5 5 4 4 4 4 4 4 4 4 4 4 4 5 5 5 5 6 6 6 6 6 6 6 6 6 6 6 6 7 7 8 8 9 10 10 11 11 12
9 9 8 8 8 7 7 7 6 6 6 5 5 5 5 5 4 5 5 5 5 5 4 4 4 4 4 4 3 3 3 3 3 3 3 3 3 3 4 4 4 4 4 4 4 4 4 4 5 4 4 4 4 4 4 4 4 4 5 5 5 5 6 6 6 6 6 6 6 6 6 6 6 6 7 7 7 8 9 10 10 11 11 12 13
10 9 9 8 8 7 7 7 6 6 6 5 5 4 4 4 4 4 4 5 5 4 4 4 3 3 3 3 3 2 3 3 3 3 3 3 2 2 3 3 3 3 3 3 3 3 3 4 4 4 4 4 4 4 4 4 5 5 5 5 6 6 6 6 7 7 7 7 6 6 6 6 6 6 6 7 7 8 9 10 10 11 12 13 13
10 10 9 8 8 8 7 7 6 6 5 5 4 4 4 4 4 4 4 4 4 4 4 3 3 3 3 3 3 2 3 3 3 3 2 2 2 2 2 2 2 2 3 3 3 3 3 3 3 4 4 4 4 4 5 5 5 5 5 5 6 7 7 7 7 7 7 7 6 6 6 6 6 6 6 7 7 8 9 10 10 11 12 13 14
11 10 9 9 8 8 7 7 6 6 5 4 4 4 3 3 3 3 3 3 3 3 3 3 3 3 3 3 3 2 3 3 3 3 2 2 2 2 2 1 1 2 2 2 2 2 2 2 3 3 4 4 4 4 5 5 5 5 6 6 6 7 7 7 7 7 7 7 6 6 6 6 6 6 6 7 7 8 9 10 11 12 13 13 14
11 10 10 9 8 8 8 7 6 6 5 4 4 3 3 3 3 3 3 3 3 3 2 3 3 2 2 2 2 2 2 3 2 2 2 2 1 1 1 1 1 2 2 2 1 2 2 2 3 3 3 4 4 4 5 5 5 5 5 6 6 6 7 7 7 7 7 7 6 6 6 6 6 6 6 7 8 8 9 10 11 12 13 14 15
11 11 10 9 9 8 8 7 6 6 5 4 4 3 3 3 2 2 2 2 2 2 2 2 2 2 2 2 2 2 2 2 2 2 1 1 1 1 1 1 2 2 2 2 2 2 2 2 2 3 3 3 4 4 5 5 5 5 5 5 5 6 6 7 7 7 7 7 7 6 6 6 6 6 7 8 8 9 10 11 12 13 13 14 15
12 11 11 10 9 8 8 8 7 6 5 5 4 3 3 3 2 1 1 1 1 1 1 1 1 2 2 2 2 2 1 1 1 1 1 0 1 1 1 1 2 2 2 2 2 2 2 2 2 2 2 3 3 4 4 5 5 5 5 5 5 5 6 6 7 7 7 7 7 6 6 6 7 7 8 9 9 10 11 12 13 13 14 15 16
12 12 11 11 10 9 8 8 7 7 6 5 4 4 3 3 2 2 1 1 1 1 1 1 1 1 1 1 2 1 1 1 1 1 0 0 0 0 0 1 1 2 3 3 3 2 2 2 2 2 2 3 3 4 4 4 5 5 5 5 5 5 5 6 7 7 7 7 7 7 6 7 7 8 9 10 11 12 12 13 14 14 15 16 16
13 12 12 11 11 10 9 8 8 7 6 5 5 4 4 3 3 2 2 2 1 1 1 1 1 1 1 1 1 1 1 1 1 0 0 0 0 0 0 1 1 2 2 2 2 2 2 2 2 2 2 3 3 3 3 4 4 4 4 5 5 5 5 6 6 7 7 7 7 7 7 7 8 9 10 11 12 13 13 14 15 15 16 16 17
14 13 12 12 11 11 10 9 8 8 7 6 5 5 4 4 3 3 3 2 2 1 1 1 1 1 1 1 2 1 1 1 1 1 1 0 0 0 0 1 1 1 2 2 2 2 2 2 2 2 2 2 2 2 3 3 3 3 4 4 4 5 5 6 6 7 7 7 8 7 8 8 9 10 11 12 13 13 14 15 15 16 17 17 17
15 14 13 13 12 11 11 10 9 8 8 7 6 5 5 4 4 4 3 3 2 2 1 1 2 1 1 1 2 1 1 1 1 1 1 1 1 0 0 1 1 1 2 2 3 3 2 2 3 3 2 2 2 2 2 3 3 3 3 4 4 5 6 6 7 7 8 8 8 8 8 9 10 11 12 13 13 14 15 15 16 17 17 17 18
16 15 14 14 13 12 11 11 10 9 9 8 7 6 6 5 5 4 4 3 3 2 2 2 2 2 2 2 2 2 2 2 1 1 1 1 1 1 1 1 1 1 2 2 3 3 3 3 3 3 2 2 2 2 2 3 3 3 4 4 5 6 6 7 7 8 8 9 9 9 10 11 11 12 13 14 14 15 16 16 17 17 18 18 18
17 16 15 15 14 13 12 11 11 10 9 8 8 7 7 6 5 5 5 4 3 3 3 2 2 2 2 2 2 2 2 2 2 2 1 1 1 1 1 2 1 2 2 2 2 2 3 3 3 3 2 2 2 2 2 3 4 4 4 5 6 7 7 8 8 9 9 10 10 11 12 12 13 14 14 15 16 16 17 17 17 18 18 19 19
18 17 16 15 15 14 13 12 12 11 10 9 8 8 7 7 6 5 5 5 4 4 3 3 3 3 3 3 2 2 2 2 2 2 2 2 2 2 2 2 2 2 2 2 2 2 3 2 2 2 2 2 2 2 3 4 4 5 5 7 8 8 9 9 10 10 11 12 12 13 14 14 15 15 16 16 17 17 18 19 19 19 19 20 20
19 18 17 16 15 15 14 13 12 12 11 10 9 9 8 7 7 6 6 6 5 5 4 4 4 4 4 3 3 2 2 2 2 2 2 2 2 2 2 2 2 2 1 1 1 1 1 1 1 1 1 2 2 3 3 4 5 6 7 8 9 9 10 11 11 12 13 13 14 15 16 16 17 17 18 19 19 19 20 20 21 21 21 21 21
20 19 18 17 16 15 14 14 13 12 12 11 10 10 9 8 8 7 7 7 6 6 6 5 5 5 4 4 4 3 3 3 3 2 3 3 3 3 3 3 2 2 1 1 1 1 1 1 1 1 2 2 3 4 5 6 6 7 8 9 10 11 12 12 13 14 15 15 16 17 18 18 19 20 20 21 21 21 22 22 22 22 23 23 23
21 20 20 18 17 16 15 15 14 13 13 12 11 11 10 9 9 9 8 8 8 7 7 7 6 6 6 5 5 4 4 3 3 3 3 3 3 3 3 3 3 2 2 2 2 2 1 2 2 3 4 4 5 6 7 8 9 9 10 11 12 13 14 14 15 16 17 18 18 19 20 21 21 22 22 22 23 23 23 24 24 24 24 24 24
22 22 21 20 19 18 17 16 15 15 14 13 12 12 11 11 10 10 10 9 9 9 9 8 7 7 7 7 6 6 5 5 4 4 4 4 4 4 4 4 3 3 3 3 4 4 4 4 5 5 6 7 7 8 9 10 10 11 12 13 14 15 15 16 17 18 19 20 20 21 22 22 23 23 24 24 25 25 25 26 26 26 26 26 26
23 23 22 21 20 19 18 17 16 16 15 14 13 13 12 12 11 11 11 11 11 10 10 10 9 9 8 8 8 7 7 6 6 5 5 5 6 5 5 5 4 4 4 4 5 6 6 6 7 7 8 8 9 9 10 11 12 13 14 15 16 16 17 18 18 19 20 21 22 22 23 24 25 25 26 26 27 28 28 28 29 29 28 28 28
24 23 23 22 21 20 19 18 17 16 16 15 14 13 13 13 12 12 12 12 12 12 12 11 11 10 10 10 9 9 8 8 7 7 7 7 7 6 6 6 6 6 6 6 6 7 8 7 8 8 9 10 10 11 11 12 13 14 15 16 17 18 18 19 19 20 21 21 22 23 24 25 26 26 27 28 29 30 30 31 31 31 31 31 30
24 24 23 23 22 21 20 20 19 18 17 16 15 14 14 14 14 13 13 13 13 13 13 13 12 12 12 11 11 10 10 9 9 9 8 8 8 8 8 8 8 7 7 8 8 8 9 9 9 9 10 11 12 13 13 14 15 16 16 17 18 19 20 20 21 21 22 22 23 24 25 26 27 28 29 30 30 31 31 31 31 31 31 31 31
25 25 24 23 23 22 21 21 20 19 18 17 16 15 15 15 14 14 14 14 14 14 14 14 13 13 13 13 12 12 11 11 11 10 10 10 10 10 9 9 9 9 9 9 9 10 10 11 11 11 11 12 13 14 15 15 16 17 18 19 19 20 21 21 21 22 23 24 26 27 27 28 28 29 30 30 30 30 30 30 30 30 30 30 29
25 25 24 24 23 23 22 21 21 20 19 18 17 17 16 15 15 15 15 15 15 15 15 15 15 15 14 14 14 13 13 12 12 12 11 11 11 11 11 10 10 10 10 10 10 11 11 12 12 13 13 14 15 16 16 17 18 18 19 20 20 21 21 22 22 23 25 26 27 28 28 28 28 28 29 29 29 29 29 29 29 28 28 28 28
26 25 25 24 24 23 23 22 21 21 20 19 18 18 17 16 16 16 16 16 16 16 16 16 16 16 16 16 15 15 14 14 13 13 13 13 13 12 12 12 11 11 11 11 12 12 13 13 14 14 14 15 16 17 17 17 18 19 19 20 20 21 21 22 24 25 26 26 27 27 27 28 28 28 28 28 28 28 28 28 28 28 28 28 27
26 26 25 25 24 24 23 23 22 21 21 20 19 19 18 17 17 16 16 16 16 17 17 17 17 17 17 17 16 16 16 15 15 14 14 14 14 14 13 13 13 13 13 13 13 13 13 14 15 15 15 16 16 17 17 17 18 18 18 19 19 20 21 23 24 25 26 27 27 28 28 28 29 29 29 28 28 28 29 29 29 29 28 28 29
26 26 26 26 25 24 24 23 23 22 21 21 20 19 19 18 18 17 17 17 17 17 17 17 17 17 18 18 17 17 17 17 16 15 16 15 15 15 14 14 14 14 14 14 14 14 14 14 14 15 16 16 16 17 17 17 17 17 17 18 19 21 23 24 24 25 26 27 28 28 28 28 29 29 30 30 30 30 31 31 31 31 30 30 30
26 26 26 26 25 25 24 24 23 23 22 22 21 20 19 19 19 18 18 18 18 17 17 17 17 17 18 18 18 18 18 18 17 17 17 17 16 16 15 15 15 15 15 14 14 14 14 14 14 15 15 16 16 16 17 17 17 18 17 17 19 22 23 25 27 27 27 27 28 29 28 28 29 29 30 30 30 31 32 32 32 32 32 31 31
26 26 26 26 25 25 24 24 24 23 23 22 22 21 21 20 19 19 19 18 18 18 18 18 18 18 18 18 18 19 19 18 18 18 18 18 18 17 17 16 16 15 15 15 14 14 14 14 14 15 15 16 16 17 18 19 19 19 17 18 20 23 24 27 29 27 25 26 27 28 29 29 29 29 30 30 30 31 31 31 32 32 32 32 31
27 27 26 26 26 25 25 24 24 24 23 23 22 22 22 21 20 20 19 19 19 18 18 18 18 18 18 18 18 18 18 18 19 19 19 19 18 18 17 17 17 16 16 15 15 15 15 15 15 16 16 17 17 18 19 20 20 19 18 19 21 24 26 28 27 25 24 25 27 28 29 29 28 29 30 30 30 31 32 32 32 32 32 32 32
28 27 27 27 26 26 25 25 25 24 24 23 23 23 22 22 22 21 20 20 19 19 19 19 19 18 18 18 17 17 17 18 18 18 18 18 18 18 18 18 18 17 17 17 17 16 16 16 17 17 17 18 18 19 20 22 22 21 20 20 22 25 26 26 25 24 25 26 26 28 29 29 28 29 30 31 31 32 33 33 33 33 33 32 32
29 28 28 28 27 27 26 26 25 25 24 23 23 23 23 23 23 22 21 21 20 20 20 19 19 19 18 18 18 17 17 18 18 18 18 18 18 18 18 18 18 18 18 18 18 18 18 18 18 18 18 19 20 20 22 24 25 23 21 21 23 25 24 24 24 26 27 27 27 28 30 30 29 30 32 32 32 33 34 34 34 33 33 32 32
29 29 29 28 28 27 27 27 26 25 25 24 24 23 23 23 23 23 22 22 21 21 21 20 20 20 19 19 18 18 18 18 18 18 19 19 19 18 18 18 18 18 18 18 18 18 18 19 20 20 21 21 22 23 24 26 26 24 23 24 25 24 23 24 25 26 27 28 28 28 30 31 31 31 33 34 34 34 35 35 34 33 33 32 32
29 29 29 28 28 28 28 27 27 26 25 25 24 24 23 23 23 23 23 23 22 22 22 21 21 20 20 20 19 19 19 19 19 19 19 19 19 18 18 17 17 17 17 17 17 17 18 18 19 21 22 22 23 24 25 27 26 25 24 25 25 23 23 25 26 26 27 28 28 28 30 32 32 32 34 34 35 35 35 35 34 33 32 32 32
29 29 28 28 28 28 28 28 27 27 26 25 25 25 24 24 23 23 23 23 23 23 23 22 22 21 21 21 20 19 19 19 19 20 20 20 19 19 18 17 17 17 17 17 17 18 18 19 20 21 22 24 25 26 27 28 28 27 25 25 24 23 24 25 26 26 27 28 28 29 31 33 33 34 35 35 35 35 35 35 34 32 31 31 31
29 29 28 28 28 28 28 28 28 27 27 26 26 26 25 25 24 24 24 24 23 24 23 23 22 22 22 21 21 20 20 20 20 20 20 20 20 19 18 18 18 17 17 17 18 19 20 21 22 23 24 25 27 28 28 29 29 27 25 24 23 23 24 25 25 26 27 28 29 29 31 33 34 35 36 36 35 35 34 33 32 31 30 30 31
29 29 28 28 28 28 28 28 28 28 27 27 27 27 26 26 25 25 24 24 24 24 24 23 23 23 23 23 22 21 21 20 20 20 20 20 20 20 19 19 18 18 18 18 18 19 20 21 22 23 24 26 27 28 29 29 27 25 24 24 23 24 24 25 25 27 28 29 30 30 31 33 34 35 37 36 35 34 32 31 30 30 30 30 30
29 28 28 28 28 28 28 28 28 28 28 27 27 27 27 26 26 25 24 24 24 24 24 24 24 23 23 23 23 23 22 21 21 20 21 21 21 20 20 19 19 18 18 18 19 20 20 21 22 23 24 25 26 27 28 28 25 23 23 24 25 25 25 25 26 27 28 29 30 31 32 33 35 35 36 36 35 33 32 30 30 30 30 30 31
Wind_Direction
117 114 112 111 110 108 106 105 105 104 104 101 100 98 95 94 92 90 89 87 87 87 85 83 82 82 83 84 86 85 85 86 88 92 93 94 96 95 93 91 90 88 87 88 90 89 87 85 84 85 86 87 87 87 88 88 88 88 87 86 84 82 78 74 69 63 57 50 44 40 36 32 28 25 22 20 18 17 15 13 12 11 10 9 7
118 116 114 113 111 110 108 107 106 105 104 102 101 99 96 94 92 91 90 90 90 90 87 85 85 84 85 87 88 88 86 85 87 91 94 95 96 97 96 95 93 92 92 91 91 91 88 86 86 86 87 87 88 88 88 89 89 88 86 83 80 76 71 67 62 56 50 43 38 33 29 25 21 17 14 12 11 10 9 8 7 6 5 4 3
121 119 116 114 113 111 110 109 107 106 105 103 102 99 97 96 93 92 93 94 94 93 90 87 86 85 86 86 88 89 88 86 87 90 93 95 96 97 96 97 96 96 95 95 94 93 90 88 89 88 89 90 90 90 89 88 87 85 82 77 73 68 62 57 51 45 39 32 27 22 19 16 13 10 8 7 6 5 5 4 3 3 2 1 360
124 121 119 117 115 113 112 111 109 107 105 104 103 100 98 96 94 95 97 99 98 96 93 90 87 86 86 85 85 88 89 88 88 90 91 92 94 95 95 95 97 98 97 96 95 95 94 93 91 90 91 92 92 88 87 85 81 77 73 68 63 56 48 42 36 30 23 18 14 11 9 8 6 5 4 2 1 1 1 1 1 0 359 358 357
128 125 122 120 118 116 114 113 110 108 106 105 104 102 100 96 95 96 100 103 102 99 96 93 89 87 85 84 84 86 89 90 89 89 89 90 91 93 93 92 94 97 96 96 96 97 97 96 94 93 92 93 94 88 82 79 73 68 63 57 52 42 31 23 19 16 12 9 6 4 3 2 1 0 360 358 357 358 358 359 358 358 358 357 357
131 129 125 122 120 118 115 113 112 109 106 105 103 103 102 99 98 98 101 103 103 102 99 96 92 88 85 83 82 84 89 91 89 88 88 87 88 89 90 89 90 92 91 93 97 99 100 98 97 96 94 92 91 84 75 70 63 58 50 42 36 25 17 11 8 7 5 3 3 2 1 359 358 359 358 357 356 357 358 359 359 359 0 0 1
134 131 126 123 121 119 117 114 113 111 107 105 103 102 102 102 101 100 101 101 100 102 102 101 96 89 86 83 82 83 88 91 89 87 86 85 86 86 87 86 87 87 88 90 93 97 100 99 97 95 93 89 82 74 65 59 50 42 33 26 21 14 9 6 4 4 2 2 2 0 359 358 358 358 358 358 358 0 2 4 4 5 6 6 6
137 134 129 125 122 120 119 117 114 112 108 106 104 102 102 102 100 98 101 101 100 102 103 104 100 92 87 85 84 84 89 92 89 87 85 84 85 85 85 84 83 84 85 87 88 93 95 96 97 94 91 86 76 64 54 45 34 26 21 18 15 12 9 6 4 4 2 1 0 359 358 357 357 358 0 1 3 6 8 9 9 10 11 11 10
140 136 132 127 125 123 121 120 116 112 109 107 105 104 102 101 100 98 99 100 100 101 103 106 106 99 91 87 86 88 94 95 92 89 87 85 86 86 86 84 83 82 84 85 85 88 88 89 93 91 86 82 72 58 46 35 26 23 21 19 16 13 10 7 5 3 1 360 359 359 358 358 359 0 3 5 8 11 11 12 12 13 14 12 11
143 139 134 130 128 126 123 121 118 114 110 108 106 105 102 100 98 97 96 97 99 101 104 107 109 106 96 88 90 96 99 99 97 93 90 87 86 85 84 82 83 82 85 88 88 87 87 87 88 85 81 77 65 51 42 35 32 30 25 21 16 11 8 5 3 1 1 360 359 360 359 0 2 3 4 7 10 12 13 12 12 12 12 10 9
145 141 137 132 130 128 126 123 121 116 111 109 108 107 105 100 96 94 93 95 98 103 107 109 112 112 105 96 97 103 104 103 100 96 93 89 86 84 81 79 80 82 85 90 91 87 85 85 81 77 76 72 62 51 44 38 34 28 22 18 14 9 6 3 2 1 1 360 359 359 359 1 4 6 8 11 13 14 14 12 11 11 9 7 5
148 145 141 137 133 131 129 127 123 117 112 109 107 108 107 102 97 93 94 95 97 102 109 113 114 115 112 106 103 107 109 106 103 99 96 92 88 85 82 80 79 81 85 89 90 85 82 80 75 68 69 70 65 59 49 39 32 26 22 18 14 9 4 2 1 0 359 359 359 360 2 6 9 10 13 15 16 16 15 13 11 9 7 5 4
154 151 148 144 139 136 133 130 126 120 114 110 107 106 104 100 97 95 96 96 95 101 109 112 116 119 118 116 111 110 111 108 106 104 99 95 91 87 84 82 79 79 83 86 85 82 80 78 75 69 68 70 66 61 53 43 37 32 28 21 13 9 6 4 2 360 359 1 4 7 11 14 15 17 16 17 18 17 15 12 10 8 7 6 5
161 159 156 153 148 143 139 136 131 125 119 114 111 108 104 101 99 98 97 97 96 101 110 113 117 120 121 121 121 119 117 114 112 108 101 95 90 86 84 82 81 79 79 81 79 76 75 73 71 69 70 69 62 60 54 47 45 38 30 22 14 11 10 9 7 6 6 9 12 16 19 19 19 20 19 19 18 16 14 10 8 7 7 7 5
168 166 164 161 157 151 146 143 137 131 125 120 116 112 109 104 100 99 98 99 98 101 111 117 116 117 121 124 127 128 125 128 127 120 111 100 91 86 84 82 82 81 74 73 73 70 68 67 66 65 66 66 61 59 55 48 44 37 31 25 19 17 16 14 13 13 14 13 16 20 22 22 22 23 21 20 18 15 12 9 8 8 8 6 4
174 172 170 167 165 160 155 150 144 138 131 125 122 117 113 107 105 103 100 98 97 100 106 112 114 116 120 122 125 128 125 135 139 133 130 118 102 90 86 82 78 74 64 62 66 63 62 62 63 62 60 61 60 59 53 47 42 37 35 31 27 25 22 20 18 18 19 17 19 24 26 27 28 26 23 20 17 13 10 9 8 8 7 5 4
178 178 176 173 172 169 163 157 151 146 140 133 128 123 117 113 111 109 105 100 99 101 100 102 111 113 112 114 119 115 107 120 131 126 129 126 116 103 91 78 66 61 50 48 53 53 58 62 63 61 60 59 57 53 46 42 40 38 37 35 32 30 29 27 25 25 26 26 27 30 31 32 31 27 22 18 13 10 8 7 6 5 3 2 1
183 182 181 179 177 174 171 166 160 155 150 145 138 132 124 119 116 111 109 108 105 104 99 100 107 110 112 115 117 111 99 106 117 115 118 120 116 113 101 76 54 51 41 37 41 48 59 65 63 61 61 59 54 47 41 39 40 39 38 38 35 32 33 35 35 34 34 33 33 33 34 32 28 25 21 15 10 7 6 4 2 0 359 358 357
187 186 186 184 181 179 177 174 169 164 161 158 152 145 136 129 124 114 111 113 111 109 105 103 105 109 118 122 119 115 107 109 113 111 113 110 96 97 100 80 51 44 45 43 48 60 66 65 64 63 59 55 48 42 39 39 40 40 40 39 37 36 38 40 39 37 34 33 33 33 32 29 25 22 17 11 7 5 2 360 358 356 355 354 353
191 191 190 189 186 183 182 180 177 174 172 170 166 159 153 147 137 123 118 119 118 117 112 108 109 115 128 136 130 124 121 123 118 108 107 105 96 81 70 66 50 46 52 51 58 76 76 68 66 64 55 47 43 42 42 42 42 42 43 42 42 41 41 39 36 34 31 29 28 27 26 23 20 16 10 6 2 359 357 355 353 352 351 350 349
194 195 194 193 191 189 188 186 184 182 181 180 178 175 173 169 160 151 138 131 133 136 137 136 129 128 136 148 149 147 147 149 147 136 116 72 77 69 59 60 58 62 65 60 63 75 79 72 65 57 49 42 44 47 48 48 48 46 46 47 45 43 40 36 33 30 27 23 21 19 17 14 11 6 2 358 355 352 351 349 348 347 347 346 346
197 198 198 198 196 195 194 193 191 190 190 188 188 189 190 187 185 189 182 165 162 164 179 194 176 155 157 163 166 167 167 173 187 180 146 70 18 346 49 69 69 78 80 70 64 66 68 69 64 59 59 57 55 55 52 50 49 48 50 49 44 40 35 31 27 25 21 17 14 10 6 3 359 356 353 350 348 346 344 343 342 342 341 341 342
200 200 201 201 201 200 200 200 199 197 197 196 196 198 199 199 200 203 201 198 196 193 206 221 218 197 185 185 184 183 180 178 194 212 191 176 331 324 12 55 63 76 80 69 62 63 64 67 70 71 75 74 68 61 53 49 47 47 48 45 39 33 28 24 21 18 15 11 6 2 357 353 350 347 344 342 341 339 338 337 337 336 337 337 338
202 202 203 203 204 204 204 205 205 204 204 203 204 205 205 205 207 208 207 207 206 206 213 218 216 209 197 192 190 189 187 180 178 173 177 186 150 323 355 67 78 78 79 74 66 71 79 82 85 86 88 86 77 64 54 47 40 37 35 29 24 19 15 12 9 6 4 1 357 353 348 344 341 338 336 335 334 333 332 331 331 332 332 333 335
204 204 205 206 207 207 208 209 209 209 210 211 212 213 213 212 212 214 215 214 213 213 216 212 206 203 195 186 180 176 171 169 174 164 151 146 141 166 121 87 88 81 82 79 70 73 90 98 98 95 91 85 73 61 50 37 26 21 14 6 2 359 356 354 353 352 351 349 346 342 337 333 331 329 329 328 328 327 327 327 327 328 329 330 331
207 208 209 209 210 211 211 212 212 213 214 215 217 218 218 217 216 217 219 220 218 217 218 215 208 202 196 189 179 173 169 166 169 169 163 155 143 133 112 96 95 90 88 87 79 77 90 100 101 95 84 73 61 48 35 20 9 4 358 351 348 344 341 339 337 336 336 335 333 330 327 324 323 322 323 323 323 323 323 324 325 326 326 327 328
210 211 212 212 213 213 213 213 213 214 216 217 218 219 219 218 218 219 221 222 220 218 219 216 213 208 202 200 194 184 178 172 167 166 164 157 144 133 121 107 99 92 89 91 88 87 95 99 99 91 75 58 43 26 13 3 357 352 346 341 338 335 330 327 325 324 323 323 322 320 319 318 317 317 317 317 318 319 319 321 322 323 324 324 324
213 213 214 214 214 213 214 215 215 216 217 219 220 220 220 219 219 221 223 223 222 220 219 218 217 214 208 205 200 190 183 179 172 164 160 158 155 151 143 131 117 101 90 85 84 93 100 99 96 87 65 43 29 16 6 358 351 345 339 334 331 329 325 321 318 316 315 315 314 313 313 313 312 312 312 312 313 314 315 317 317 318 319 320 320
215 215 215 215 215 214 215 216 217 218 219 221 222 223 223 223 224 225 227 228 225 222 221 220 217 213 210 207 202 197 192 187 184 180 176 174 172 170 166 160 153 138 113 86 76 83 81 76 77 65 36 20 8 356 350 345 341 337 332 329 326 324 322 318 315 312 310 309 309 308 308 308 308 308 309 308 309 309 310 311 312 313 314 314 315
215 216 216 216 216 216 216 218 219 220 222 223 225 226 227 229 229 231 232 231 229 226 224 223 220 218 217 214 211 210 206 202 202 201 194 190 189 189 189 187 188 191 199 253 300 336 354 346 3 1 345 336 332 330 329 328 327 326 324 322 320 319 318 315 312 310 308 307 307 306 306 306 307 307 307 307 307 307 307 307 308 308 308 309 310
216 217 217 218 218 218 218 219 221 222 224 226 228 229 230 232 233 234 235 234 233 230 228 226 225 224 223 224 224 225 225 223 224 223 216 209 209 210 211 213 218 225 234 260 282 295 308 312 317 322 318 316 316 317 318 318 317 316 318 317 315 315 314 312 310 308 307 307 306 306 306 306 306 306 306 305 305 305 305 305 305 305 305 305 306
217 218 218 219 220 221 221 222 223 224 226 229 231 232 233 234 235 236 236 234 234 233 231 230 230 228 227 229 232 234 236 237 238 239 234 227 224 224 226 229 235 242 247 258 272 282 292 298 300 303 306 307 308 308 309 311 311 310 312 313 312 311 311 309 307 306 306 306 305 305 305 305 305 305 304 304 304 303 303 303 302 302 302 302 303
218 219 220 220 222 223 224 225 225 226 228 230 232 234 235 236 236 238 237 236 235 235 234 233 233 233 231 232 236 238 241 243 245 246 243 236 233 232 235 238 244 250 255 261 271 281 288 293 297 300 302 303 303 304 305 308 310 310 310 310 310 310 309 309 309 307 306 305 305 304 304 303 303 303 303 303 303 302 302 301 300 299 299 300 301
219 220 221 222 223 224 225 226 226 227 228 230 233 235 237 238 238 238 239 237 236 235 235 235 235 235 234 235 238 240 243 245 246 248 246 241 238 238 239 243 249 254 259 265 273 281 286 290 294 298 301 302 304 304 305 307 309 310 310 311 311 311 310 310 310 310 308 306 306 305 305 305 304 303 303 303 302 301 300 299 299 298 298 299 299
219 220 221 222 223 224 225 227 227 227 228 230 233 235 237 239 240 240 239 238 237 235 236 237 236 236 236 237 239 241 244 246 247 248 248 244 242 242 244 247 253 258 262 267 272 279 285 288 291 294 297 299 301 302 303 305 307 308 310 311 311 310 310 310 310 310 309 307 307 307 307 306 305 305 304 303 302 301 300 300 299 299 298 297 296
220 220 221 222 223 224 226 227 227 228 229 230 233 235 237 239 240 241 240 239 238 236 237 238 238 237 238 239 240 243 245 247 248 248 248 246 245 246 248 251 255 261 265 268 272 277 283 286 288 290 293 296 297 299 301 303 304 306 308 309 309 309 309 309 310 311 310 309 309 309 309 309 308 307 306 305 304 302 302 301 300 300 299 297 296
220 220 221 222 224 225 226 227 228 229 230 231 233 235 237 239 240 241 241 240 239 238 238 239 239 239 239 240 242 244 245 247 249 249 248 246 245 247 251 254 258 263 267 270 273 276 281 284 287 289 291 293 296 298 300 301 303 305 307 308 309 308 308 309 310 312 312 312 311 311 311 311 311 310 309 308 307 305 303 303 302 301 300 299 297
220 221 222 223 224 226 227 228 229 230 231 232 233 235 237 239 240 241 242 240 239 240 240 240 240 241 241 242 243 244 246 247 248 250 249 247 247 248 252 256 260 265 269 272 275 277 280 284 287 289 291 293 295 297 299 300 302 304 306 308 309 309 310 311 311 313 314 315 315 313 312 312 312 312 312 312 311 308 306 305 304 303 301 300 298
221 222 222 224 225 227 228 228 229 231 232 233 234 235 236 239 240 241 241 241 240 241 242 242 243 243 242 243 244 245 246 247 248 249 249 248 248 250 254 258 262 266 270 273 276 278 281 284 288 290 293 295 297 298 299 300 300 302 305 308 310 312 314 314 313 314 316 317 316 316 314 313 313 312 312 312 310 309 307 306 305 303 301 299 298
221 222 223 225 226 227 228 229 229 231 232 234 235 235 236 238 240 241 241 241 241 242 243 244 245 244 244 245 245 246 246 247 247 248 249 249 250 252 255 259 262 266 270 274 277 279 282 285 288 291 294 296 297 299 300 301 301 303 306 309 313 316 316 315 314 314 315 316 317 317 316 315 314 313 312 311 309 306 305 304 303 302 299 297 296
223 223 224 225 227 228 228 228 229 230 232 234 235 235 236 237 239 240 241 241 242 243 243 244 245 245 245 245 247 247 248 249 248 248 249 250 250 253 256 259 262 266 270 274 277 281 283 285 288 291 294 296 297 299 300 300 300 302 305 309 313 317 317 317 315 314 315 316 317 317 317 317 317 316 314 314 311 309 307 306 304 303 300 298 296
224 224 225 225 227 227 228 228 229 230 232 235 235 235 236 238 239 240 241 241 242 243 243 244 245 246 246 246 248 248 249 250 250 250 250 250 251 253 255 258 261 265 269 273 277 280 283 285 288 291 293 294 296 298 299 299 299 300 304 308 313 317 319 318 318 318 318 318 318 318 318 318 318 318 317 316 315 313 312 310 309 306 303 300 298
224 225 226 226 227 228 229 230 230 231 233 234 234 235 236 238 239 240 240 241 242 242 243 244 245 246 246 247 248 249 249 251 252 252 251 250 251 253 255 258 260 263 267 272 276 279 282 285 287 289 291 293 295 297 298 297 298 299 302 307 312 316 318 318 320 322 322 322 321 320 320 321 321 321 320 319 317 315 314 313 310 308 305 303 300
225 226 227 227 228 229 230 231 231 232 233 233 233 235 237 238 239 240 240 241 242 243 243 244 244 245 245 246 247 249 250 250 252 252 251 250 250 252 255 258 261 263 266 269 273 277 280 284 286 288 290 292 294 297 297 298 299 299 301 307 313 316 317 317 319 320 321 323 324 322 321 322 323 322 321 320 318 316 315 313 311 308 306 304 302
227 227 228 228 229 230 231 232 232 233 234 233 233 235 237 238 239 240 240 241 242 244 244 244 244 244 245 246 247 248 250 251 252 253 252 251 252 253 256 259 262 264 266 268 271 274 277 281 284 287 290 292 295 297 298 300 302 302 306 313 316 317 317 316 317 318 319 322 323 321 321 323 323 322 322 322 319 317 316 314 312 309 307 305 303
228 229 229 229 230 231 232 233 233 234 235 234 233 235 237 238 239 240 240 241 242 244 244 244 243 244 244 245 246 248 249 251 252 253 252 252 253 254 257 260 263 266 267 268 270 273 276 279 282 286 289 292 296 299 300 302 302 303 309 316 318 317 317 317 317 317 318 321 322 322 322 323 324 323 323 323 322 320 319 316 313 310 308 307 305
229 229 230 230 231 231 232 233 234 235 235 234 234 235 237 238 239 240 241 241 242 243 244 243 243 243 244 245 246 248 249 251 252 252 251 252 253 255 257 259 263 266 268 270 272 275 278 281 283 286 289 293 297 300 301 302 301 302 310 316 317 317 317 318 319 318 319 321 322 322 322 324 325 324 324 324 324 322 321 318 315 313 310 308 307
229 229 230 230 231 232 233 234 234 235 235 234 234 236 237 238 239 240 241 242 243 243 244 243 242 243 244 245 247 249 250 252 252 252 251 252 253 254 257 259 262 266 269 272 274 276 280 282 285 289 291 294 297 300 301 302 300 304 313 318 317 317 318 319 320 320 321 322 323 322 322 324 325 324 325 326 325 323 322 320 318 315 313 310 309
228 228 229 230 232 232 233 234 234 236 237 236 235 236 237 238 239 241 241 242 243 243 243 243 242 243 244 245 247 249 251 252 253 252 252 251 251 253 256 259 263 267 271 274 276 277 280 283 286 289 292 295 297 298 300 300 300 305 315 318 317 318 318 318 319 320 321 322 322 323 323 324 325 325 325 326 326 324 322 321 319 317 315 314 312
226 228 229 230 232 233 234 234 235 236 238 237 236 237 238 238 239 241 242 242 243 243 243 243 242 242 243 244 246 249 250 252 254 253 251 250 250 251 255 259 264 268 272 276 280 281 283 286 289 291 294 296 297 297 300 300 300 306 314 315 315 317 316 315 317 319 320 321 322 323 323 323 325 325 325 326 326 325 324 323 321 319 317 317 315
226 228 229 231 232 233 234 235 235 236 238 239 238 238 238 238 240 242 243 243 243 242 242 242 241 242 244 245 246 247 249 252 254 253 251 249 249 251 255 260 264 268 273 277 281 284 287 290 292 295 297 298 298 299 301 301 301 307 312 312 312 312 312 314 316 318 320 321 322 324 323 323 324 325 326 327 327 327 326 324 322 320 319 318 317